Hourly Data Report for March 05, 2020

TORONTO CITY
ONTARIO
Current Station Operator: ECCC - MSC

43°40'00.000" N
79°24'00.000" W
112.50 m
6158355
71508
XTO

Download Data

Hourly Data (March 2020)
Hourly Data Report for March 5, 2020
TIME
LST
Temp Definition
°C
Dew Point Definition
°C
Rel Hum Definition
%
Precip. Amount Definition
mm

Wind Dir Definition
10's deg

Wind Spd Definition
km/h
Visibility Definition
km
Stn Press Definition
kPa
Hmdx Definition


Wind Chill Definition


Weather Definition


00:00 2.1 -6.7 52 0.0       100.30     LegendNANA
01:00 2.0 -6.2 55 0.0       100.35     LegendNANA
02:00 1.8 -6.7 53 0.0       100.42     LegendNANA
03:00 1.2 -7.6 52 0.0       100.43     LegendNANA
04:00 0.6 -7.4 55 0.0       100.51     LegendNANA
05:00 0.1 -6.9 59 0.0       100.55     LegendNANA
06:00 -0.4 -6.7 63 0.0       100.59     LegendNANA
07:00 -0.5 -6.7 63 0.0       100.66     LegendNANA
08:00 0.4 -7.1 57 0.0       100.68     LegendNANA
09:00 1.6 -7.4 51 0.0       100.66     LegendNANA
10:00 2.2 -7.8 48 0.0       100.65     LegendNANA
11:00 3.2 -6.4 49 0.0       100.65     LegendNANA
12:00 3.3 -6.7 48 0.0       100.64     LegendNANA
13:00 4.0 -7.7 42 0.3       100.58     LegendNANA
14:00 4.7 -9.5 35 0.6       100.50     LegendNANA
15:00 4.9 -5.9 45 0.2       100.44     LegendNANA
16:00 4.3 -6.2 46 0.0       100.41     LegendNANA
17:00 4.2 -5.9 48 0.0       100.38     LegendNANA
18:00 4.2 -6.6 45 0.0       100.29     LegendNANA
19:00 3.9 -6.8 45 0.0       100.24     LegendNANA
20:00 3.8 -8.3 41 0.0       100.23     LegendNANA
21:00 2.7 -1.9 72 0.0       100.23     LegendNANA
22:00 2.2 -1.3 78 0.0       100.10     LegendNANA
23:00 2.1 -1.4 78 0.0       100.01     LegendNANA

Notes on Data Quality.

Legend

  • E = Estimated
  • M = Missing
  • NA = Not Available*
  • [empty] = Indicates an unobserved value
Date modified: